Regional Weather Roundup
Issued by NWS

Home | Current Version | Previous Version | Text Only | Print | Product List | Glossary Off
Versions: 1 2 3 4 5 6 7 8 9 10 11 12 13 14 15 16 17 18 19 20 21 22 23 24 25 26 27 28 29 30 31 32 33 34 35 36 37 38 39 40 41 42 43 44 45 46 47 48 49 50

000
ASUS45 KSLC 041910
RWRUT

UTAH REGIONAL WEATHER ROUNDUP
NATIONAL WEATHER SERVICE SALT LAKE CITY UT
100 PM MDT MON MAY 04 2015

UTZ001>011-023>025-042000-

NORTHERN UTAH

CITY           SKY/WX    TMP DP  RH WIND       PRES   REMARKS
BRIGHAM CITY   MOSUNNY   72  36  26 N5        29.93F
DUGWAY         PTSUNNY   72  37  28 SE2       29.93F
HILL AFB       PTSUNNY   71  40  32 VRB2      29.94F
LOGAN          SUNNY     70  40  33 CALM      29.94F
OGDEN          PTSUNNY   72  39  30 VRB3      29.93F
PROVO AIRPORT  MOSUNNY   68  39  34 SW5       29.93F
SALT LAKE CITY PTSUNNY   73  39  29 W7        29.91F
VERNAL         MOSUNNY   68  38  33 VRB3      29.98F
WENDOVER       MOSUNNY   73  36  25 E12       29.92F
HEBER CITY     PTSUNNY   64  36  34 CALM      29.95F
WEST JORDAN    PTSUNNY   75  45  33 NW7       29.93F

$$

UTZ012>022-026-027-042000-

SOUTHERN/CENTRAL UTAH

CITY           SKY/WX    TMP DP  RH WIND       PRES   REMARKS
BLANDING       MOSUNNY   67  37  33 S3        30.07F
BRYCE CANYON   CLOUDY    54  37  52 E13       30.09F
CEDAR CITY     CLOUDY    58  43  57 E10       29.98F
DELTA          MOSUNNY   69  35  28 SW5       29.93F
HANKSVILLE     MOSUNNY   64  50  59 CALM      29.99F
MILFORD        MOSUNNY   71  38  29 MISG      29.93F
MOAB/CYNLANDS  SUNNY     71  41  33 VRB5      29.94F
PRICE          CLOUDY    63  38  39 MISG      30.02F
ST GEORGE      MOCLDY    66  46  48 S3        29.93F
KANAB          PTSUNNY   68  37  32 SW8       30.00F

$$

REGIONAL REPORTS     COLORADO/ARIZONA

CITY           SKY/WX    TMP DP  RH WIND       PRES   REMARKS
CRAIG, CO      PTSUNNY   66  38  35 CALM      30.03F
GRAND JUNCTION PTSUNNY   71  41  33 W8G18     29.96F
RIFLE          CLOUDY    62  42  47 S9        30.02F
MONTROSE       MOSUNNY   66  39  37 W13       30.01F
CORTEZ         MOSUNNY   71  35  26 SW15G22   30.00F
PAGE, AZ       PTSUNNY   71  38  29 CALM      29.93F
GRAND CANYON   LGT RAIN  49  40  71 SE8       30.05F
KINGMAN        CLOUDY    71  41  33 SW13G20   29.95F
FLAGSTAFF      CLOUDY    55  37  50 NE3       30.05F

$$

REGIONAL REPORTS    NEVADA/IDAHO/WYOMING

CITY           SKY/WX    TMP DP  RH WIND       PRES   REMARKS
LAS VEGAS, NV  PTSUNNY   81  41  24 E16G24    29.82F
ELY            PTSUNNY   63  32  31 E14       29.98F
ELKO           MOSUNNY   73  29  19 CALM      29.92F
POCATELLO, ID  MOSUNNY   72  39  30 NW10      29.95F
BURLEY         MOSUNNY   75  37  25 E7        29.90F
EVANSTON, WY   CLOUDY    62  38  40 NE7       30.05F
ROCK SPRINGS   SUNNY     60  36  40 VRB3      30.06F
KEMMERER       PTSUNNY   57  41  54 E3        30.09F

$$



USA.gov is the U.S. government's official web portal to all federal, state and local government web resources and services.